This is the latest recevied weather packets stored in our database for station/object KJ5JYX. If no packets are shown the sender has not sent any weather packets the latest 10 day(s).
| Time | Temp. | Humidity | Pressure | Rain* | Wind** | Luminosity | Snow |
|---|---|---|---|---|---|---|---|
| 1777669527 | 13.89° C | 90% | 1015.8 hPa | 0 mm | - | 27 W/m² | - |
| 1777669224 | 14.44° C | 91% | 1015.5 hPa | 0 mm | - | 25 W/m² | - |
| 1777668921 | 14.44° C | 91% | 1015.5 hPa | 0 mm | - | 24 W/m² | - |
| 1777668619 | 14.44° C | 91% | 1015.6 hPa | 0 mm | - | 33 W/m² | - |
| 1777668314 | 14.44° C | 91% | 1015.4 hPa | 0 mm | - | 45 W/m² | - |
| 1777668011 | 14.44° C | 91% | 1015 hPa | 0 mm | - | 47 W/m² | - |
| 1777667708 | 14.44° C | 92% | 1014.9 hPa | 0 mm | - | 113 W/m² | - |
| 1777667406 | 14.44° C | 93% | 1014.7 hPa | 0 mm | - | 86 W/m² | - |
| 1777667102 | 14.44° C | 92% | 1014.9 hPa | 0 mm | - | 43 W/m² | - |
| 1777666798 | 14.44° C | 93% | 1014.8 hPa | 0 mm | - | 89 W/m² | - |
| 1777666496 | 14.44° C | 93% | 1014.9 hPa | 0 mm | - | 119 W/m² | - |
| 1777666192 | 14.44° C | 94% | 1014.9 hPa | 0 mm | - | 131 W/m² | - |
| 1777665890 | 14.44° C | 95% | 1014.7 hPa | 0 mm | - | 158 W/m² | - |
| 1777665587 | 14.44° C | 95% | 1014.7 hPa | 0 mm | - | 222 W/m² | - |
| 1777665284 | 14.44° C | 96% | 1014.7 hPa | 0 mm | - | 160 W/m² | - |
| 1777664979 | 14.44° C | 97% | 1014.5 hPa | 0 mm | - | 293 W/m² | - |
| 1777664675 | 13.89° C | 97% | 1014.6 hPa | 0 mm | - | 192 W/m² | - |
| 1777664371 | 13.89° C | 98% | 1014.6 hPa | 0 mm | - | 119 W/m² | - |
| 1777664070 | 13.89° C | 97% | 1014.6 hPa | 0 mm | - | 143 W/m² | - |
| 1777663767 | 13.89° C | 98% | 1014.7 hPa | 0 mm | - | 141 W/m² | - |
| 1777663464 | 14.44° C | 98% | 1014.5 hPa | 0 mm | - | 205 W/m² | - |
| 1777663161 | 14.44° C | 98% | 1014.9 hPa | 0 mm | - | 123 W/m² | - |
| 1777662859 | 14.44° C | 99% | 1014.8 hPa | 0 mm | - | 361 W/m² | - |
| 1777662555 | 13.89° C | 99% | 1014.7 hPa | 0 mm | - | 221 W/m² | - |
| 1777662252 | 13.89° C | 99% | 1015 hPa | 0 mm | - | 215 W/m² | - |
* Rain latest hour (hover to see other rain measurements)
** Current wind speed in m/s (hover to see current wind gust speed)